1483840801.19,51217,2.88,72440.5,-22.31,-55.35,-55.67,0,*65
1483840802.48,51218,2.88,72442.8,-22.31,-55.59,-55.89,0,*60
1483840803.74,51219,2.88,72444.8,-22.31,-55.81,-56.13,0,*64
1483840805.03,51220,2.88,72442.0,-22.31,-55.67,-55.97,0,*69
1483840806.28,51221,2.88,72444.3,-22.31,-55.81,-56.21,0,*6E
1483840807.57,51222,2.88,72444.3,-22.31,-55.35,-55.67,0,*63
1483840808.85,51223,2.88,72442.8,-22.29,-55.13,-55.51,0,*6A
1483840810.13,51224,2.88,72444.3,-22.29,-55.13,-55.51,0,*6D
1483840811.4,51225,2.88,72448.3,-22.29,-55.05,-55.35,0,*69
1483840812.68,51226,2.88,72450.3,-22.27,-55.13,-55.51,0,*61
1483840813.96,51227,2.88,72450.5,-22.27,-55.05,-55.35,0,*65
1483840815.24,51228,2.88,72450.0,-22.27,-55.13,-55.51,0,*6F
1483840816.55,51229,2.88,72454.8,-22.25,-55.13,-55.51,0,*6C
1483840817.85,51230,2.88,72458.0,-22.25,-55.13,-55.59,0,*6C
1483840819.16,51231,2.88,72456.3,-22.25,-55.13,-55.59,0,*6D
1483840820.45,51232,2.88,72452.0,-22.25,-55.35,-55.89,0,*67
1483840821.73,51233,2.88,72450.3,-22.25,-55.29,-55.75,0,*68
1483840823.0,51234,2.88,72446.3,-22.25,-55.59,-55.81,0,*63
1483840824.27,51235,2.88,72440.5,-22.25,-55.81,-56.05,0,*68
1483840825.54,51236,2.88,72436.8,-22.25,-55.89,-56.29,0,*6D
1483840826.81,51237,2.88,72432.0,-22.25,-56.13,-56.37,0,*63
1483840828.11,51238,2.88,72438.0,-22.25,-56.13,-56.51,0,*6C
1483840829.38,51239,2.88,72442.0,-22.23,-56.05,-56.43,0,*6F
1483840830.63,51240,2.88,72442.5,-22.23,-56.21,-56.51,0,*64
1483840831.88,51241,2.88,72450.8,-22.23,-56.13,-56.37,0,*64
1483840833.15,51242,2.88,72448.3,-22.23,-56.13,-56.51,0,*67
1483840834.43,51243,2.88,72446.3,-22.25,-56.29,-56.51,0,*69
1483840835.7,51244,2.88,72450.3,-22.25,-56.13,-56.59,0,*6F
1483840836.94,51245,2.88,72448.0,-22.25,-56.29,-56.59,0,*67
1483840838.24,51246,2.88,72444.8,-22.25,-56.13,-56.51,0,*65
1483840839.51,51247,2.88,72440.0,-22.25,-56.51,-56.99,0,*66
1483840840.78,51248,2.88,72430.3,-22.25,-56.51,-56.99,0,*69
1483840842.06,51249,2.88,72424.8,-22.25,-56.51,-56.83,0,*63
1483840843.34,51250,2.88,72420.5,-22.25,-56.51,-56.99,0,*60
1483840844.61,51251,2.88,72424.3,-22.25,-56.51,-56.99,0,*61
1483840845.84,51252,2.88,72432.5,-22.27,-56.59,-57.07,0,*6E
1483840847.07,51253,2.88,72438.5,-22.29,-56.75,-57.07,0,*6F
1483840848.3,51254,2.88,72432.8,-22.27,-56.59,-57.07,0,*68
1483840849.53,51255,2.88,72436.8,-22.29,-56.59,-57.07,0,*67
1483840850.75,51256,2.88,72440.3,-22.29,-56.75,-57.21,0,*6E
1483840851.98,51257,2.88,72444.3,-22.27,-56.75,-57.21,0,*61
1483840853.2,51258,2.88,72440.0,-22.27,-56.59,-56.99,0,*62
1483840854.44,51259,2.88,72442.3,-22.27,-56.75,-57.07,0,*6B
1483840855.66,51260,2.88,72436.5,-22.29,-56.75,-57.21,0,*6B
1483840856.88,51261,2.88,72430.5,-22.29,-56.75,-57.21,0,*6A
1483840858.1,51262,2.88,72432.3,-22.29,-56.83,-57.21,0,*60
1483840859.32,51263,2.88,72436.3,-22.29,-56.83,-57.21,0,*61
1483840860.57,51264,2.88,72438.3,-22.31,-56.67,-57.15,0,*62
1483840861.78,51265,2.88,72434.8,-22.33,-56.67,-57.07,0,*62
1483840863.0,51266,2.88,72428.3,-22.33,-56.67,-57.15,0,*62
1483840864.24,51267,2.88,72432.8,-22.31,-56.91,-57.29,0,*67
1483840865.45,51268,2.88,72438.3,-22.33,-56.91,-57.29,0,*6A
1483840866.66,51269,2.88,72426.0,-22.33,-56.67,-57.15,0,*6D
1483840867.88,51270,2.88,72430.0,-22.33,-56.67,-57.07,0,*66
1483840869.1,51271,2.88,72426.3,-22.33,-56.59,-56.91,0,*64
1483840870.35,51272,2.88,72430.5,-22.31,-56.59,-57.07,0,*6B
1483840871.59,51273,2.88,72432.3,-22.31,-56.83,-57.29,0,*61
1483840872.81,51274,2.88,72430.8,-22.33,-56.67,-57.15,0,*61
1483840874.05,51275,2.88,72424.5,-22.35,-56.67,-56.99,0,*63
1483840875.28,51276,2.88,72422.5,-22.33,-56.13,-56.37,0,*61
1483840876.55,51277,2.88,72420.5,-22.33,-55.43,-55.89,0,*60
1483840877.85,51278,2.88,72416.5,-22.31,-55.35,-55.59,0,*61
1483840879.11,51279,2.88,72416.0,-22.33,-55.35,-55.67,0,*6F
1483840880.37,51280,2.88,72408.5,-22.33,-55.35,-55.59,0,*64
1483840881.66,51281,2.88,72414.8,-22.31,-55.21,-55.67,0,*6F
1483840882.9,51282,2.88,72410.8,-22.29,-55.35,-55.81,0,*68
1483840884.17,51283,2.88,72418.0,-22.29,-55.59,-56.05,0,*6C
1483840885.43,51284,2.88,72414.0,-22.29,-55.75,-55.89,0,*62
1483840886.72,51285,2.88,72404.8,-22.31,-55.59,-55.97,0,*6B
1483840887.99,51286,2.88,72414.5,-22.29,-55.35,-55.59,0,*69
1483840889.24,51287,2.88,72408.3,-22.27,-55.29,-55.75,0,*65
1483840890.51,51288,2.88,72410.3,-22.29,-55.35,-55.75,0,*69
1483840891.79,51289,2.88,72414.0,-22.27,-55.35,-55.75,0,*66
1483840893.06,51290,2.88,72408.0,-22.27,-55.59,-55.89,0,*67
1483840894.31,51291,2.88,72404.3,-22.27,-55.81,-56.05,0,*64
1483840895.58,51292,2.88,72404.0,-22.27,-55.35,-55.89,0,*6F
1483840896.86,51293,2.88,72402.8,-22.27,-55.35,-55.75,0,*6D
1483840898.11,51294,2.88,72398.0,-22.27,-55.35,-55.81,0,*61
1483840899.39,51295,2.88,72398.3,-22.27,-55.51,-55.75,0,*69
1483840900.67,51296,2.88,72398.5,-22.25,-55.51,-55.81,0,*63
1483840901.97,51297,2.88,72396.3,-22.25,-55.35,-55.75,0,*6B
1483840903.25,51298,2.88,72398.8,-22.25,-55.51,-55.81,0,*6D
1483840904.55,51299,2.88,72400.5,-22.25,-55.35,-55.75,0,*65
1483840905.82,51300,2.88,72402.0,-22.23,-55.21,-55.67,0,*64
1483840907.09,51301,2.88,72400.5,-22.23,-55.75,-55.97,0,*6B
1483840908.37,51302,2.88,72396.8,-22.21,-55.43,-55.81,0,*68
1483840909.64,51303,2.88,72402.0,-22.23,-55.21,-55.67,0,*67
1483840910.89,51304,2.88,72400.3,-22.23,-55.43,-55.81,0,*6C
1483840912.14,51305,2.88,72400.5,-22.23,-55.51,-55.81,0,*6E
1483840913.39,51306,2.88,72404.5,-22.23,-55.43,-55.81,0,*6E
1483840914.69,51307,2.88,72412.8,-22.21,-55.43,-55.67,0,*65
1483840915.96,51308,2.88,72410.5,-22.21,-55.29,-55.67,0,*66
1483840917.23,51309,2.88,72404.8,-22.21,-55.51,-55.81,0,*60
1483840918.51,51310,2.88,72410.0,-22.19,-55.13,-55.59,0,*60
1483840919.8,51311,2.88,72410.3,-22.21,-55.21,-55.67,0,*66
1483840921.11,51312,2.88,72412.8,-22.21,-55.43,-55.75,0,*62
1483840922.38,51313,2.88,72416.5,-22.19,-55.13,-55.67,0,*6E
1483840923.66,51314,2.88,72414.8,-22.19,-54.97,-55.43,0,*62
1483840924.94,51315,2.88,72414.5,-22.19,-54.97,-55.43,0,*63
1483840926.24,51316,2.88,72420.8,-22.17,-55.13,-55.43,0,*63
1483840927.55,51317,2.88,72418.5,-22.17,-55.13,-55.43,0,*62
1483840928.79,51318,2.88,72420.5,-22.15,-54.89,-55.35,0,*6C
1483840930.09,51319,2.88,72428.8,-22.17,-55.21,-55.59,0,*66
1483840931.35,51320,2.88,72430.8,-22.15,-55.59,-55.89,0,*6C
1483840932.63,51321,2.88,72430.3,-22.15,-55.75,-56.13,0,*63
1483840933.92,51322,2.88,72434.8,-22.17,-55.97,-56.43,0,*6B
1483840935.22,51323,2.88,72438.5,-22.17,-55.89,-56.43,0,*65
1483840936.52,51324,2.88,72434.3,-22.17,-55.75,-56.13,0,*64
1483840937.79,51325,2.88,72426.5,-22.17,-55.89,-56.21,0,*67
1483840939.09,51326,2.88,72422.0,-22.17,-55.67,-55.97,0,*6A
1483840940.38,51327,2.88,72418.8,-22.17,-55.67,-55.97,0,*6B
1483840941.67,51328,2.88,72412.0,-22.17,-55.67,-56.13,0,*6B
1483840942.95,51329,2.88,72404.3,-22.17,-55.89,-56.21,0,*6B
1483840944.22,51330,2.88,72406.0,-22.17,-55.89,-56.37,0,*64
1483840945.49,51331,2.88,72410.3,-22.17,-55.97,-56.21,0,*6D
1483840946.77,51332,2.88,72398.5,-22.17,-55.75,-56.21,0,*62
1483840948.04,51333,2.88,72404.8,-22.15,-55.59,-55.97,0,*61
1483840949.3,51334,2.88,72406.8,-22.15,-55.59,-55.89,0,*69
1483840950.57,51335,2.88,72404.5,-22.15,-55.59,-55.89,0,*68
1483840951.83,51336,2.88,72410.0,-22.15,-55.59,-56.37,0,*6D
1483840953.09,51337,2.88,72404.8,-22.15,-55.67,-56.13,0,*67
1483840954.37,51338,2.88,72406.5,-22.17,-55.97,-56.37,0,*63
1483840955.66,51339,2.88,72412.0,-22.17,-55.89,-56.13,0,*6B
1483840956.93,51340,2.88,72406.3,-22.15,-55.89,-56.13,0,*67
1483840958.2,51341,2.88,72406.3,-22.15,-55.75,-56.13,0,*65
1483840959.49,51342,2.88,72404.8,-22.17,-55.59,-55.97,0,*65
1483840960.76,51343,2.88,72410.0,-22.15,-55.59,-55.89,0,*69
1483840962.03,51344,2.88,72410.5,-22.15,-55.67,-55.97,0,*6C
1483840963.3,51345,2.88,72408.5,-22.15,-55.75,-56.13,0,*61
1483840964.58,51346,2.88,72408.5,-22.15,-55.75,-56.13,0,*62
1483840965.85,51347,2.88,72410.3,-22.15,-55.75,-56.13,0,*63
1483840967.12,51348,2.88,72410.3,-22.15,-55.67,-55.89,0,*6F
1483840968.39,51349,2.88,72410.5,-22.15,-55.67,-55.89,0,*6E
1483840969.66,51350,2.88,72412.5,-22.11,-55.59,-55.89,0,*6F
1483840970.94,51351,2.88,72408.3,-22.07,-55.43,-55.75,0,*61
1483840972.2,51352,2.88,72410.0,-22.07,-55.89,-56.29,0,*6E
1483840973.47,51353,2.88,72408.5,-22.11,-55.51,-55.67,0,*64
1483840974.74,51354,2.88,72416.8,-22.07,-55.59,-55.97,0,*63
1483840976.01,51355,2.88,72414.5,-22.11,-55.67,-56.13,0,*67
1483840977.28,51356,2.88,72414.0,-22.07,-55.59,-55.97,0,*61
1483840978.55,51357,2.88,72416.5,-22.07,-55.75,-55.97,0,*6E
1483840979.83,51358,2.88,72418.5,-22.11,-56.05,-56.51,0,*6B
1483840981.05,51359,2.88,72414.0,-22.07,-55.81,-56.21,0,*65
1483840982.3,51360,2.88,72420.5,-22.11,-55.67,-56.29,0,*68
1483840983.57,51361,2.88,72418.0,-22.11,-55.89,-56.13,0,*60
1483840984.82,51362,2.88,72416.0,-22.07,-55.81,-56.05,0,*6B
1483840986.07,51363,2.88,72416.5,-22.07,-55.75,-56.21,0,*67
1483840987.34,51364,2.88,72418.0,-22.07,-55.97,-56.05,0,*6A
1483840988.59,51365,2.88,72416.0,-22.11,-56.05,-56.37,0,*65
1483840989.86,51366,2.88,72416.3,-22.07,-55.59,-55.97,0,*62
1483840991.13,51367,2.88,72420.5,-22.11,-55.89,-56.13,0,*66
1483840992.4,51368,2.88,72420.0,-22.11,-55.59,-56.05,0,*63
1483840993.64,51369,2.88,72418.8,-22.11,-55.81,-56.05,0,*67
1483840994.89,51370,2.88,72420.0,-22.11,-55.89,-56.29,0,*69
1483840996.14,51371,2.88,72424.3,-22.11,-55.81,-56.05,0,*6E
1483840997.41,51372,2.88,72420.5,-22.11,-55.75,-56.13,0,*61
1483840998.68,51373,2.88,72420.5,-22.11,-55.67,-56.05,0,*64
1483840999.93,51374,2.88,72422.5,-22.11,-55.89,-56.29,0,*6D
1483841001.16,51375,2.88,72422.5,-22.11,-56.29,-56.59,0,*62
1483841002.41,51376,2.88,72418.3,-22.11,-55.89,-56.37,0,*60
1483841003.65,51377,2.88,72420.5,-22.11,-55.81,-56.13,0,*6F
1483841004.91,51378,2.88,72420.3,-22.07,-55.43,-55.81,0,*61
1483841006.14,51379,2.88,72420.0,-22.11,-55.81,-56.29,0,*68
1483841007.41,51380,2.88,72424.0,-22.07,-55.43,-55.59,0,*63
1483841008.7,51381,2.88,72424.3,-22.07,-55.51,-55.75,0,*6F
1483841009.97,51382,2.88,72422.3,-22.07,-55.75,-56.05,0,*6E
1483841011.23,51383,2.88,72424.5,-22.11,-55.89,-56.37,0,*6A
1483841012.5,51384,2.88,72426.8,-22.11,-55.67,-55.89,0,*6B
1483841013.74,51385,2.88,72426.5,-22.07,-55.81,-56.13,0,*65
1483841014.99,51386,2.88,72426.0,-22.07,-55.29,-55.59,0,*69
1483841016.26,51387,2.88,72422.8,-22.11,-55.67,-55.89,0,*68
1483841017.54,51388,2.88,72428.8,-22.07,-55.43,-55.75,0,*65
1483841018.82,51389,2.88,72428.8,-22.07,-55.51,-56.05,0,*63
1483841020.12,51390,2.88,72430.0,-22.05,-55.75,-56.05,0,*6F
1483841021.4,51391,2.88,72430.5,-22.05,-55.43,-55.81,0,*64
1483841022.68,51392,2.88,72436.8,-22.05,-55.51,-55.81,0,*64
1483841023.97,51393,2.88,72430.8,-22.05,-55.59,-56.05,0,*62
1483841025.24,51394,2.88,72430.5,-22.05,-55.97,-56.21,0,*61
1483841026.5,51395,2.88,72434.5,-22.05,-55.59,-55.81,0,*6B
1483841027.75,51396,2.88,72434.3,-22.05,-55.81,-56.21,0,*64
1483841029.0,51397,2.88,72430.0,-22.05,-55.81,-56.21,0,*65
1483841030.24,51398,2.88,72436.3,-22.03,-55.89,-56.21,0,*64
1483841031.52,51399,2.88,72436.5,-22.05,-55.75,-56.21,0,*60
1483841032.77,51400,2.88,72426.8,-22.05,-56.21,-56.67,0,*67
1483841034.07,51401,2.88,72428.8,-22.05,-56.05,-56.43,0,*66
1483841035.33,51402,2.88,72434.0,-22.05,-55.59,-55.81,0,*62
1483841036.63,51403,2.88,72434.3,-22.05,-55.51,-55.97,0,*6C
1483841037.9,51404,2.88,72434.0,-22.03,-55.67,-55.97,0,*68
1483841039.2,51405,2.88,72430.5,-22.05,-55.75,-56.05,0,*64
1483841040.48,51406,2.88,72436.0,-22.03,-55.21,-55.75,0,*64
1483841041.74,51407,2.88,72442.0,-22.05,-55.59,-55.81,0,*67
1483841043.05,51408,2.88,72440.5,-22.05,-55.51,-55.97,0,*67
1483841044.3,51409,2.88,72444.8,-22.05,-55.81,-56.29,0,*6D
1483841045.57,51410,2.88,72444.3,-22.03,-55.51,-56.13,0,*67
1483841046.86,51411,2.88,72446.0,-22.05,-55.59,-56.05,0,*6F
1483841048.14,51412,2.88,72448.3,-22.03,-55.51,-56.13,0,*65
1483841049.44,51413,2.88,72444.0,-22.05,-55.75,-55.97,0,*6B
1483841050.68,51414,2.88,72434.3,-22.05,-55.81,-56.21,0,*69
1483841051.93,51415,2.88,72430.8,-22.03,-56.13,-56.37,0,*61
1483841053.18,51416,2.88,72416.5,-22.05,-56.21,-56.67,0,*60
1483841054.44,51417,2.88,72410.3,-22.03,-56.13,-56.43,0,*60
1483841055.72,51418,2.88,72410.3,-22.05,-56.21,-56.51,0,*6B
1483841057.0,51419,2.88,72406.3,-22.05,-56.21,-56.51,0,*6A
1483841058.25,51420,2.88,72416.3,-22.05,-56.29,-56.75,0,*6E
1483841059.49,51421,2.88,72416.8,-22.05,-56.29,-56.91,0,*65
1483841060.74,51422,2.88,72422.3,-22.05,-56.29,-56.75,0,*6C
1483841061.97,51423,2.88,72436.3,-22.07,-56.21,-56.75,0,*67
1483841063.27,51424,2.88,72436.5,-22.05,-56.05,-56.51,0,*62
1483841064.54,51425,2.88,72438.0,-22.05,-55.97,-56.29,0,*64
1483841065.81,51426,2.88,72426.3,-22.05,-55.97,-56.29,0,*67
1483841067.05,51427,2.88,72420.5,-22.05,-56.21,-56.67,0,*62
1483841068.3,51428,2.88,72420.8,-22.05,-56.29,-56.67,0,*65
1483841069.55,51429,2.88,72424.8,-22.07,-56.21,-56.51,0,*6B
1483841070.8,51430,2.88,72432.0,-22.07,-56.21,-56.51,0,*63
1483841072.05,51431,2.88,72430.3,-22.05,-55.81,-56.29,0,*66
1483841073.3,51432,2.88,72438.0,-22.11,-55.81,-56.05,0,*6E
1483841074.56,51433,2.88,72434.3,-22.07,-55.59,-55.97,0,*65
1483841075.82,51434,2.88,72434.8,-22.07,-55.43,-55.81,0,*6E
1483841077.07,51435,2.88,72438.8,-22.07,-55.43,-55.81,0,*6F
1483841078.34,51436,2.88,72440.0,-22.07,-55.59,-56.05,0,*68
1483841079.61,51437,2.88,72444.3,-22.07,-55.59,-56.05,0,*69
1483841080.89,51438,2.88,72440.5,-22.07,-55.75,-56.05,0,*68
1483841082.13,51439,2.88,72426.3,-22.05,-55.81,-56.21,0,*66
1483841083.4,51440,2.88,72412.0,-22.05,-55.97,-56.29,0,*67
1483841084.7,51441,2.88,72408.5,-22.05,-56.05,-56.43,0,*62
1483841085.98,51442,2.88,72410.0,-22.05,-56.21,-56.51,0,*64
1483841087.26,51443,2.88,72424.0,-22.05,-56.21,-56.51,0,*65
1483841088.49,51444,2.88,72422.0,-22.11,-56.29,-56.83,0,*60
1483841089.71,51445,2.88,72420.8,-22.07,-56.21,-56.67,0,*64
1483841090.95,51446,2.88,72424.3,-22.11,-56.51,-56.99,0,*66
1483841092.21,51447,2.88,72420.3,-22.07,-56.51,-56.91,0,*68
1483841093.46,51448,2.88,72418.0,-22.11,-56.43,-56.99,0,*6B
1483841094.71,51449,2.88,72420.3,-22.11,-56.43,-56.99,0,*6A
1483841095.93,51450,2.88,72424.0,-22.11,-56.37,-56.99,0,*61
1483841097.18,51451,2.88,72428.3,-22.11,-56.51,-56.99,0,*60
1483841098.41,51452,2.88,72430.3,-22.11,-56.37,-56.99,0,*63
1483841099.64,51453,2.88,72426.8,-22.11,-56.37,-56.75,0,*60
1483841100.91,51454,2.88,72432.3,-22.11,-55.89,-56.13,0,*61
1483841102.16,51455,2.88,72428.5,-22.15,-55.97,-56.37,0,*6D
1483841103.43,51456,2.88,72428.3,-22.15,-55.97,-56.43,0,*6D
1483841104.7,51457,2.88,72430.3,-22.15,-55.89,-56.43,0,*63
1483841105.96,51458,2.88,72436.8,-22.07,-56.21,-56.51,0,*6D
1483841107.21,51459,2.88,72430.8,-22.11,-56.13,-56.37,0,*6A
1483841108.46,51460,2.88,72420.5,-22.11,-56.05,-56.37,0,*67
1483841109.71,51461,2.88,72424.8,-22.11,-56.29,-56.51,0,*68
1483841110.94,51462,2.88,72420.5,-22.11,-56.29,-56.83,0,*64
1483841112.17,51463,2.88,72414.5,-22.15,-56.37,-56.91,0,*6D
1483841113.4,51464,2.88,72406.0,-22.15,-56.59,-57.07,0,*6C
1483841114.63,51465,2.88,72408.8,-22.15,-56.59,-57.07,0,*6D
1483841115.89,51466,2.88,72420.0,-22.15,-56.43,-57.07,0,*65
1483841117.17,51467,2.88,72406.8,-22.17,-56.43,-56.91,0,*68
1483841118.45,51468,2.88,72408.5,-22.17,-56.43,-56.83,0,*64
1483841119.7,51469,2.88,72412.0,-22.15,-56.43,-56.67,0,*6D
1483841120.98,51470,2.88,72414.8,-22.17,-56.43,-56.83,0,*6D
1483841122.26,51471,2.88,72410.5,-22.17,-56.43,-56.91,0,*6F
1483841123.54,51472,2.88,72412.3,-22.17,-56.43,-56.91,0,*6C
1483841124.82,51473,2.88,72426.5,-22.17,-56.43,-57.07,0,*63
1483841126.07,51474,2.88,72422.3,-22.17,-56.37,-56.67,0,*60
1483841127.32,51475,2.88,72416.5,-22.17,-56.21,-56.59,0,*6B
1483841128.55,51476,2.88,72414.3,-22.19,-56.37,-57.07,0,*6B
1483841129.77,51477,2.88,72416.0,-22.19,-56.59,-56.91,0,*6C
1483841131.05,51478,2.88,72412.5,-22.21,-56.43,-56.91,0,*63
1483841132.27,51479,2.88,72414.3,-22.19,-56.21,-56.59,0,*69
1483841133.54,51480,2.88,72422.5,-22.19,-55.75,-56.13,0,*63
1483841134.82,51481,2.88,72418.3,-22.19,-55.75,-56.13,0,*62
1483841136.07,51482,2.88,72418.8,-22.19,-55.89,-56.37,0,*64
1483841137.31,51483,2.88,72418.8,-22.19,-55.97,-56.37,0,*6A
1483841138.55,51484,2.88,72412.3,-22.19,-55.97,-56.21,0,*6A
1483841139.82,51485,2.88,72410.5,-22.19,-55.89,-56.13,0,*65
1483841141.09,51486,2.88,72408.8,-22.19,-55.59,-55.89,0,*6B
1483841142.34,51487,2.88,72414.3,-22.19,-55.75,-56.21,0,*65
1483841143.61,51488,2.88,72416.5,-22.19,-55.75,-56.13,0,*6B
1483841144.88,51489,2.88,72414.3,-22.19,-55.21,-55.59,0,*66
1483841146.15,51490,2.88,72418.8,-22.19,-55.75,-56.13,0,*62
1483841147.4,51491,2.88,72420.0,-22.19,-55.89,-56.21,0,*61
1483841148.65,51492,2.88,72418.8,-22.15,-55.97,-56.37,0,*66
1483841149.92,51493,2.88,72424.3,-22.17,-55.97,-56.37,0,*65
1483841151.22,51494,2.88,72418.5,-22.17,-55.75,-55.97,0,*67
1483841152.51,51495,2.88,72422.8,-22.17,-55.59,-55.75,0,*64
1483841153.81,51496,2.88,72422.3,-22.17,-55.35,-55.67,0,*6E
1483841155.1,51497,2.88,72424.3,-22.17,-55.67,-55.89,0,*68
1483841156.4,51498,2.88,72426.3,-22.17,-55.35,-55.75,0,*63
1483841157.7,51499,2.88,72426.8,-22.17,-55.59,-55.75,0,*68
1483841158.98,51500,2.88,72420.8,-22.17,-55.75,-56.21,0,*65
1483841160.25,51501,2.88,72418.3,-22.17,-55.89,-56.21,0,*67
1483841161.52,51502,2.88,72412.3,-22.17,-55.89,-56.21,0,*64
1483841162.79,51503,2.88,72408.5,-22.17,-55.97,-56.37,0,*6D
1483841164.07,51504,2.88,72414.0,-22.15,-56.13,-56.43,0,*64
1483841165.31,51505,2.88,72414.3,-22.17,-56.37,-56.67,0,*67
1483841166.57,51506,2.88,72416.5,-22.17,-56.37,-56.83,0,*6E
1483841167.82,51507,2.88,72424.0,-22.17,-56.21,-56.83,0,*68
1483841169.07,51508,2.88,72424.3,-22.17,-56.37,-56.83,0,*60
1483841170.32,51509,2.88,72416.0,-22.15,-56.13,-56.59,0,*62
1483841171.58,51510,2.88,72412.8,-22.17,-56.13,-56.59,0,*68
1483841172.83,51511,2.88,72414.5,-22.17,-56.37,-56.67,0,*62
1483841174.13,51512,2.88,72416.5,-22.17,-56.13,-56.43,0,*61
1483841175.4,51513,2.88,72422.0,-22.17,-56.13,-56.59,0,*6B
1483841176.64,51514,2.88,72416.3,-22.19,-56.13,-56.59,0,*62
1483841177.86,51515,2.88,72424.8,-22.19,-56.37,-56.59,0,*65
1483841179.08,51516,2.88,72426.3,-22.19,-56.21,-56.67,0,*6C
1483841180.35,51517,2.88,72422.3,-22.17,-56.13,-56.59,0,*6F
1483841181.59,51518,2.88,72426.5,-22.19,-56.13,-56.59,0,*6E
1483841182.84,51519,2.88,72424.3,-22.19,-55.89,-56.37,0,*67
1483841184.13,51520,2.88,72430.0,-22.21,-55.97,-56.43,0,*6A
1483841185.37,51521,2.88,72432.0,-22.21,-56.29,-56.67,0,*6B
1483841186.63,51522,2.88,72426.8,-22.19,-55.75,-56.21,0,*6B
1483841187.89,51523,2.88,72426.3,-22.21,-55.97,-56.21,0,*6D
1483841189.13,51524,2.88,72434.8,-22.19,-55.97,-56.21,0,*61
1483841190.43,51525,2.88,72436.5,-22.21,-55.51,-55.97,0,*6F
1483841191.7,51526,2.88,72438.8,-22.19,-55.67,-56.13,0,*6D
1483841192.97,51527,2.88,72432.3,-22.21,-55.97,-56.21,0,*69
1483841194.22,51528,2.88,72430.3,-22.19,-55.89,-56.37,0,*65
1483841195.49,51529,2.88,72432.8,-22.19,-55.75,-56.13,0,*61
1483841196.78,51530,2.88,72434.5,-22.21,-55.97,-56.43,0,*6B
1483841198.03,51531,2.88,72426.5,-22.19,-55.89,-56.21,0,*6A
1483841199.3,51532,2.88,72420.8,-22.19,-56.13,-56.43,0,*6D
1483841200.52,51533,2.88,72422.3,-22.19,-56.29,-56.75,0,*60
1483841201.77,51534,2.88,72416.3,-22.21,-56.29,-56.75,0,*6C
1483841203.04,51535,2.88,72414.3,-22.21,-56.43,-56.91,0,*6B
1483841204.29,51536,2.88,72414.5,-22.21,-56.21,-56.75,0,*66
1483841205.52,51537,2.88,72412.0,-22.19,-56.37,-56.83,0,*62
1483841206.74,51538,2.88,72416.5,-22.19,-56.37,-56.83,0,*6D
1483841208.0,51539,2.88,72416.3,-22.23,-56.21,-56.51,0,*6D
1483841209.26,51540,2.88,72414.8,-22.21,-55.97,-56.29,0,*60
1483841210.54,51541,2.88,72420.8,-22.21,-56.21,-56.51,0,*60
1483841211.76,51542,2.88,72422.0,-22.19,-56.21,-56.59,0,*60
1483841212.98,51543,2.88,72424.5,-22.23,-56.21,-56.67,0,*65
1483841214.25,51544,2.88,72422.3,-22.21,-56.43,-56.75,0,*67
1483841215.51,51545,2.88,72428.5,-22.23,-56.43,-56.91,0,*6E
1483841216.76,51546,2.88,72420.5,-22.25,-56.37,-56.83,0,*6B
1483841218.04,51547,2.88,72416.5,-22.25,-56.51,-57.07,0,*67
1483841219.29,51548,2.88,72418.3,-22.23,-56.43,-56.91,0,*63
1483841220.57,51549,2.88,72420.3,-22.25,-56.51,-56.83,0,*64
1483841221.85,51550,2.88,72426.3,-22.23,-56.05,-56.51,0,*64
1483841223.09,51551,2.88,72426.0,-22.23,-55.97,-56.29,0,*62
1483841224.31,51552,2.88,72428.0,-22.23,-55.81,-56.29,0,*66
1483841225.59,51553,2.88,72430.5,-22.25,-55.89,-56.37,0,*66
1483841226.84,51554,2.88,72424.0,-22.23,-55.81,-56.43,0,*6C
1483841228.09,51555,2.88,72424.0,-22.23,-55.81,-56.43,0,*6D
1483841229.36,51556,2.88,72424.0,-22.23,-55.67,-56.05,0,*64
1483841230.64,51557,2.88,72434.5,-22.25,-55.51,-55.81,0,*69
1483841231.89,51558,2.88,72430.3,-22.23,-55.29,-55.75,0,*64
1483841233.15,51559,2.88,72422.0,-22.23,-55.67,-55.97,0,*63
1483841234.4,51560,2.88,72422.8,-22.23,-55.67,-55.81,0,*6E
1483841235.67,51561,2.88,72426.8,-22.23,-55.51,-56.05,0,*65
1483841236.92,51562,2.88,72430.0,-22.19,-55.97,-56.37,0,*64
1483841238.17,51563,2.88,72434.0,-22.23,-56.05,-56.29,0,*6B
1483841239.41,51564,2.88,72428.0,-22.23,-55.81,-55.97,0,*65
1483841240.68,51565,2.88,72420.5,-22.23,-55.43,-55.97,0,*6A
1483841241.98,51566,2.88,72422.5,-22.21,-55.67,-56.05,0,*65
1483841243.24,51567,2.88,72422.3,-22.19,-55.67,-55.89,0,*68
1483841244.54,51568,2.88,72420.8,-22.21,-55.97,-56.43,0,*66
1483841245.83,51569,2.88,72420.0,-22.21,-55.97,-56.43,0,*67
1483841247.11,51570,2.88,72418.8,-22.21,-55.75,-56.29,0,*6F
1483841248.38,51571,2.88,72412.3,-22.23,-55.97,-56.43,0,*6C
1483841249.65,51572,2.88,72424.5,-22.21,-55.97,-56.29,0,*61
1483841250.92,51573,2.88,72428.8,-22.21,-55.75,-56.21,0,*64
1483841252.19,51574,2.88,72438.0,-22.23,-55.75,-55.97,0,*6F
1483841253.45,51575,2.88,72432.8,-22.23,-55.75,-56.21,0,*60
1483841254.7,51576,2.88,72424.8,-22.23,-55.75,-56.21,0,*63
1483841255.95,51577,2.88,72424.5,-22.23,-56.21,-56.43,0,*64
1483841257.2,51578,2.88,72420.3,-22.23,-56.21,-56.51,0,*68
1483841258.45,51579,2.88,72422.5,-22.23,-56.21,-56.51,0,*69
1483841259.72,51580,2.88,72420.8,-22.23,-56.05,-56.43,0,*6A
1483841260.95,51581,2.88,72414.0,-22.23,-56.29,-56.75,0,*60
1483841262.2,51582,2.88,72412.3,-22.23,-56.43,-56.91,0,*65
1483841263.42,51583,2.88,72418.3,-22.23,-56.29,-56.59,0,*6C
1483841264.69,51584,2.88,72414.5,-22.23,-55.97,-56.51,0,*65
1483841265.94,51585,2.88,72408.5,-22.25,-56.37,-56.83,0,*64
1483841267.16,51586,2.88,72414.5,-22.23,-56.29,-56.67,0,*64
1483841268.44,51587,2.88,72416.5,-22.23,-56.05,-56.43,0,*6D
1483841269.68,51588,2.88,72416.8,-22.23,-55.97,-56.29,0,*66
1483841270.95,51589,2.88,72416.8,-22.25,-56.13,-56.37,0,*61
1483841272.21,51590,2.88,72422.0,-22.23,-56.21,-56.43,0,*6D
1483841273.45,51591,2.88,72420.0,-22.23,-55.29,-55.67,0,*62
1483841274.72,51592,2.88,72422.5,-22.23,-55.67,-55.97,0,*64
1483841276.01,51593,2.88,72426.8,-22.25,-55.97,-56.43,0,*66
1483841277.29,51594,2.88,72430.3,-22.23,-56.05,-56.51,0,*6C
1483841278.55,51595,2.88,72428.5,-22.25,-56.13,-56.59,0,*64
1483841279.8,51596,2.88,72418.8,-22.25,-56.37,-56.75,0,*6F
1483841281.08,51597,2.88,72430.8,-22.23,-55.97,-56.51,0,*67
1483841282.34,51598,2.88,72424.8,-22.23,-56.13,-56.51,0,*67
1483841283.59,51599,2.88,72426.0,-22.25,-56.29,-56.75,0,*6F
1483841284.84,51600,2.88,72432.5,-22.25,-56.29,-56.75,0,*6C
1483841286.09,51601,2.88,72434.0,-22.25,-55.81,-56.29,0,*65
1483841287.37,51602,2.88,72416.0,-22.25,-55.75,-56.29,0,*6D
1483841288.67,51603,2.88,72420.5,-22.25,-55.59,-55.89,0,*6B
1483841289.97,51604,2.88,72416.5,-22.25,-55.51,-55.89,0,*64
1483841291.22,51605,2.88,72408.8,-22.23,-55.51,-55.81,0,*6B
1483841292.5,51606,2.88,72394.5,-22.25,-55.89,-56.29,0,*6A
1483841293.79,51607,2.88,72406.8,-22.25,-55.59,-55.89,0,*6F
1483841295.04,51608,2.88,72408.8,-22.23,-55.29,-55.75,0,*62
1483841296.29,51609,2.88,72416.8,-22.23,-55.75,-56.29,0,*60
1483841297.57,51610,2.88,72410.0,-22.23,-55.51,-55.97,0,*68
1483841298.87,51611,2.88,72414.3,-22.25,-55.75,-56.05,0,*61
1483841300.15,51612,2.88,72422.5,-22.25,-55.51,-55.81,0,*6B
1483841301.42,51613,2.88,72416.8,-22.23,-55.75,-56.05,0,*65
1483841302.69,51614,2.88,72422.8,-22.23,-55.75,-56.05,0,*62
1483841303.96,51615,2.88,72426.5,-22.23,-55.59,-55.89,0,*6A
1483841305.23,51616,2.88,72416.5,-22.23,-55.75,-56.05,0,*60